Date,TemperatureHighF,TemperatureAvgF,TemperatureLowF,DewpointHighF,DewpointAvgF,DewpointLowF,HumidityHigh,HumidityAvg,HumidityLow,PressureMaxIn,PressureMinIn,WindSpeedMaxMPH,WindSpeedAvgMPH,GustSpeedMaxMPH,PrecipitationSumIn
2013-1-1,75.8,60.1,45.1,60.7,54.5,44.3,99,84,58,30.26,30.06,8,1,18,0.00
2013-1-2,75.5,65.1,54.4,68.5,61.8,53.0,98,90,76,30.11,30.00,5,0,12,0.00
2013-1-3,64.3,58.2,49.3,62.8,57.1,48.5,100,96,92,30.28,30.08,3,0,9,0.19
2013-1-4,61.5,52.0,46.6,55.0,49.7,45.5,98,92,77,30.37,30.25,5,0,9,0.00
2013-1-5,67.1,53.4,39.5,56.5,48.8,38.7,98,86,66,30.38,30.27,6,1,10,0.00
2013-1-6,68.3,58.8,54.9,61.8,55.7,52.0,98,90,78,30.28,30.14,2,0,8,0.05
2013-1-7,65.0,55.2,47.0,56.1,51.0,44.4,97,86,72,30.32,30.21,7,1,18,0.00
2013-1-8,75.6,63.7,54.9,69.0,60.9,53.5,97,91,80,30.31,30.22,6,1,15,0.01
2013-1-9,80.1,69.1,62.0,72.6,66.9,61.1,100,93,74,30.37,30.26,5,0,9,0.00
2013-1-10,80.1,71.1,64.9,70.8,67.2,63.7,99,89,62,30.38,30.28,8,1,14,0.00
2013-1-11,82.7,68.1,56.4,68.8,62.7,55.9,100,85,52,30.31,30.19,6,1,14,0.01
2013-1-12,82.7,67.0,55.5,68.9,61.4,54.9,100,84,50,30.24,30.14,6,1,10,0.00
2013-1-13,80.0,66.5,56.2,67.2,61.5,55.4,100,86,57,30.21,30.11,5,1,9,0.01
2013-1-14,81.0,66.2,54.8,67.7,60.8,54.2,100,85,56,30.24,30.14,7,1,12,0.00
2013-1-15,80.9,67.8,55.2,68.2,62.6,54.7,100,85,57,30.20,30.08,6,0,14,0.00
2013-1-16,80.9,68.5,57.4,68.9,63.2,56.3,100,85,57,30.13,30.03,6,1,12,0.00
2013-1-17,73.0,57.5,43.0,66.8,53.6,36.4,100,87,64,30.19,29.99,7,2,23,0.03
2013-1-18,60.5,49.3,39.4,49.1,42.7,34.9,89,78,65,30.41,30.20,10,2,23,0.00
2013-1-19,68.1,56.2,45.6,58.3,51.5,43.1,96,84,69,30.39,30.24,7,2,14,0.00
2013-1-20,75.1,60.8,48.2,57.1,53.6,46.8,97,80,45,30.25,30.10,6,0,10,0.00
2013-1-21,71.2,56.4,45.1,54.7,49.6,44.3,98,80,53,30.17,30.06,3,0,9,0.00
2013-1-22,63.4,50.4,39.9,45.2,38.7,32.4,92,68,33,30.34,30.13,6,1,12,0.00
2013-1-23,65.2,46.5,30.7,44.2,35.9,29.2,95,71,36,30.45,30.33,3,0,9,0.00
2013-1-24,73.9,54.9,38.0,54.6,47.3,37.0,98,78,46,30.36,30.24,7,1,15,0.00
2013-1-25,74.8,60.0,51.2,57.9,51.5,47.8,98,77,44,30.36,30.20,6,0,12,0.00
2013-1-26,74.6,60.1,48.0,61.3,55.3,47.1,99,85,60,30.29,30.19,7,0,12,0.00
2013-1-27,71.9,61.8,52.1,63.3,57.6,51.0,99,87,72,30.39,30.26,6,2,14,0.01
2013-1-28,78.4,66.9,54.1,64.4,60.5,53.3,99,82,58,30.40,30.27,6,1,10,0.00
2013-1-29,74.5,65.2,59.6,68.3,63.2,59.0,99,94,81,30.31,30.12,2,0,7,0.00
2013-1-30,83.3,74.1,63.8,67.3,65.4,60.2,96,76,54,30.14,29.84,14,5,24,0.08
2013-1-31,60.8,51.4,38.4,57.8,40.2,30.2,96,69,32,30.29,29.95,6,1,15,0.08
2013-2-1,68.6,48.3,33.2,39.5,34.6,30.3,94,65,28,30.38,30.28,6,1,14,0.00
2013-2-2,68.5,47.5,32.7,42.8,34.5,25.4,93,64,33,30.39,30.20,5,0,9,0.00
2013-2-3,68.7,49.4,33.5,46.4,34.9,27.8,96,65,22,30.22,30.08,7,1,14,0.00
2013-2-4,66.2,49.4,33.5,45.1,39.1,32.2,98,73,35,30.17,30.09,3,0,8,0.00
2013-2-5,71.1,55.0,37.5,54.5,45.5,36.2,98,74,42,30.14,30.04,2,0,7,0.00
2013-2-6,67.2,60.4,55.7,61.7,57.5,51.9,97,90,81,30.19,30.08,2,0,7,0.06
2013-2-7,77.8,65.6,56.3,67.0,62.7,55.5,99,91,66,30.12,29.87,8,2,16,0.19
2013-2-8,72.8,62.8,50.6,66.0,57.6,49.3,95,84,62,30.13,29.89,7,1,13,0.00
2013-2-9,68.4,54.9,45.5,54.6,49.0,43.3,98,82,53,30.29,30.13,7,2,14,0.01
2013-2-10,75.3,59.7,42.4,60.3,52.7,41.4,99,80,55,30.33,30.21,8,2,17,0.00
2013-2-11,82.5,69.5,60.8,64.9,61.5,57.9,95,77,51,30.22,30.09,9,2,20,0.00
2013-2-12,82.4,70.5,59.2,68.4,65.6,58.0,99,86,59,30.11,29.93,7,2,13,0.00
2013-2-13,76.9,71.1,61.4,71.5,67.1,57.4,94,87,70,29.97,29.84,9,2,16,0.08
2013-2-14,62.7,54.5,47.0,57.4,51.2,46.1,97,89,78,30.12,29.94,3,0,9,0.06
2013-2-15,67.9,50.9,38.5,48.3,43.8,37.7,98,80,42,30.15,30.01,3,0,10,0.01
2013-2-16,58.1,48.1,41.1,48.1,40.7,24.8,98,77,48,30.19,29.97,7,1,18,0.00
2013-2-17,54.0,39.4,28.0,27.8,21.4,13.6,85,54,21,30.40,30.19,6,1,12,0.00
2013-2-18,64.8,43.7,22.0,44.5,32.0,19.8,93,68,35,30.45,30.28,7,1,17,0.00
2013-2-19,78.3,59.3,37.7,62.3,50.7,36.2,98,76,46,30.27,30.06,9,2,22,0.00
2013-2-20,70.2,56.4,45.4,58.7,45.5,36.7,97,70,40,30.21,30.09,5,0,12,0.00
2013-2-21,76.8,57.2,39.5,59.4,49.2,38.2,98,77,52,30.19,30.04,5,1,10,0.00
2013-2-22,86.4,69.6,54.7,68.9,61.9,52.6,99,79,46,30.11,30.00,8,1,16,0.07
2013-2-23,82.3,71.8,62.0,69.4,66.7,60.6,99,85,62,30.02,29.89,8,2,19,0.29
2013-2-24,72.8,64.7,58.9,65.1,61.9,56.9,98,91,74,30.04,29.89,5,0,8,0.02
2013-2-25,69.9,63.5,58.2,65.9,61.8,56.5,99,94,86,29.97,29.83,7,1,15,0.24
2013-2-26,78.4,68.4,59.5,70.4,63.6,56.8,99,86,48,29.87,29.70,9,2,20,0.55
2013-2-27,69.5,59.8,52.0,56.8,50.1,45.6,95,72,46,30.02,29.88,5,1,12,0.00
2013-2-28,72.7,58.8,44.0,49.8,46.0,39.8,96,66,33,30.02,29.89,7,1,17,0.00
2013-3-1,61.6,53.5,48.0,47.4,39.4,35.0,91,60,38,30.05,29.94,6,1,12,0.00
2013-3-2,56.5,45.4,34.3,38.1,33.4,29.1,95,65,37,30.08,29.96,7,2,20,0.00
2013-3-3,48.5,39.7,30.5,34.2,30.6,27.7,92,71,50,30.18,30.04,7,1,15,0.00
2013-3-4,65.6,44.9,27.9,39.9,30.8,25.3,94,65,28,30.27,30.15,5,0,10,0.00
2013-3-5,75.9,57.0,36.0,58.5,46.1,34.2,96,71,37,30.22,29.97,7,2,17,0.00
2013-3-6,66.6,54.5,39.3,62.0,38.0,29.7,86,56,30,30.18,29.92,8,3,21,0.00
2013-3-7,66.7,48.0,34.8,40.9,35.8,31.1,91,67,34,30.27,30.17,5,1,10,0.00
2013-3-8,73.8,52.1,32.7,50.8,39.8,31.4,98,70,27,30.27,30.16,7,1,12,0.00
2013-3-9,70.7,53.8,36.4,51.2,45.5,35.4,98,77,45,30.30,30.20,7,1,17,0.00
2013-3-10,75.8,61.0,44.6,58.3,52.1,43.3,98,76,46,30.25,30.13,9,2,17,0.00
2013-3-11,77.0,64.2,48.5,61.0,55.8,47.6,99,76,51,30.17,29.92,10,2,17,0.00
2013-3-12,70.8,65.1,50.3,67.7,60.3,46.9,97,85,70,30.06,29.86,6,2,14,0.09
2013-3-13,72.5,56.8,44.6,47.1,39.3,34.6,93,57,25,30.22,30.06,5,1,14,0.00
2013-3-14,64.3,50.2,36.1,37.5,32.5,29.8,89,53,30,30.34,30.21,6,1,14,0.00
2013-3-15,74.0,52.3,31.3,45.3,36.6,30.1,98,62,28,30.32,30.16,5,0,12,0.00
2013-3-16,81.0,59.7,38.1,54.2,44.7,36.5,98,63,29,30.21,30.05,5,1,17,0.00
2013-3-17,77.9,59.4,39.6,57.9,48.7,38.2,98,72,32,30.17,30.03,7,1,14,0.03
2013-3-18,79.5,67.4,57.2,65.6,61.3,56.4,99,82,57,30.09,29.89,6,1,16,0.05
2013-3-19,82.4,69.3,59.1,65.5,61.6,57.7,97,79,51,30.07,29.92,6,1,17,0.18
2013-3-20,70.3,61.1,50.3,59.0,56.3,49.2,97,85,63,30.04,29.87,6,1,15,0.13
2013-3-21,69.4,52.9,39.2,52.8,38.5,28.3,98,66,23,30.01,29.90,5,1,14,0.01
2013-3-22,67.6,53.9,38.9,48.8,43.2,36.8,95,69,45,30.09,29.96,6,2,14,0.00
2013-3-23,68.0,59.3,47.8,67.4,57.9,45.7,98,95,85,30.03,29.82,10,1,22,1.61
2013-3-24,83.9,72.1,63.7,74.1,68.3,63.1,98,89,63,29.84,29.59,10,3,22,0.34
2013-3-25,68.1,59.4,47.6,63.3,41.6,26.3,92,56,22,30.07,29.69,9,2,21,0.00
2013-3-26,57.8,47.1,35.1,35.3,30.9,27.6,85,56,33,30.29,30.08,8,2,19,0.00
2013-3-27,62.5,45.6,32.4,39.3,33.3,29.7,91,66,35,30.35,30.25,5,1,12,0.00
2013-3-28,70.1,50.2,31.9,41.5,35.1,30.6,97,64,25,30.34,30.24,5,1,12,0.00
2013-3-29,74.5,54.8,35.0,48.6,39.1,33.9,98,63,26,30.37,30.23,5,0,10,0.00
2013-3-30,79.0,59.5,39.1,48.9,44.5,37.5,97,64,32,30.30,30.14,5,1,15,0.00
2013-3-31,82.3,65.0,47.7,57.8,52.3,44.6,93,67,42,30.18,30.01,8,1,20,0.00
2013-4-1,82.9,69.2,55.1,69.6,61.0,53.7,97,77,50,30.04,29.92,6,1,14,0.08
2013-4-2,80.6,65.6,50.3,58.2,52.1,47.3,98,67,32,30.14,30.01,6,1,13,0.00
2013-4-3,80.3,63.7,49.0,65.5,58.2,47.6,98,84,52,30.14,30.03,6,1,13,0.67
2013-4-4,76.4,70.2,64.2,70.3,66.3,62.8,99,88,74,30.07,29.90,7,1,24,0.14
2013-4-5,65.7,61.2,53.5,64.4,59.3,51.8,97,93,90,30.07,29.82,3,0,10,0.03
2013-4-6,72.0,59.2,46.1,58.9,53.3,45.3,98,82,62,30.22,30.06,7,1,13,0.00
2013-4-7,78.3,64.2,51.9,64.0,56.6,50.9,99,78,52,30.22,30.13,6,1,12,0.00
2013-4-8,84.3,66.6,49.6,65.2,57.3,48.7,99,76,38,30.19,30.10,7,1,15,0.00
2013-4-9,84.2,68.7,53.5,69.0,60.5,52.7,100,78,49,30.22,30.12,7,1,13,0.00
2013-4-10,84.3,69.0,50.9,67.7,61.4,49.8,98,79,51,30.18,30.04,7,1,13,0.00
2013-4-11,88.5,75.9,65.1,73.4,69.7,63.4,99,83,52,30.03,29.83,7,2,15,0.24
2013-4-12,85.4,76.1,70.3,75.1,70.9,67.0,97,85,61,29.92,29.80,9,2,22,0.00
2013-4-13,85.6,72.4,57.8,68.9,57.4,47.8,92,63,27,30.05,29.91,5,0,9,0.00
2013-4-14,79.0,64.6,52.6,68.3,60.8,51.5,98,88,66,30.03,29.90,5,1,12,1.71
2013-4-15,87.1,72.1,59.3,70.2,64.9,58.7,99,80,54,30.15,29.87,5,1,15,0.01
2013-4-16,83.5,72.4,62.7,71.1,66.4,61.5,98,83,62,30.21,30.12,7,1,13,0.00
2013-4-17,81.3,70.7,62.0,70.3,65.6,61.4,99,85,61,30.21,30.13,7,1,14,0.00
2013-4-18,88.7,73.7,61.3,70.5,65.7,60.7,99,79,42,30.13,29.99,5,1,12,0.00
2013-4-19,87.6,76.9,69.9,75.5,71.2,68.4,97,84,59,30.04,29.91,10,2,23,0.35
2013-4-20,75.3,56.4,49.8,71.5,54.3,48.7,97,93,84,30.24,30.01,3,1,10,0.51
2013-4-21,69.5,61.2,49.6,64.0,58.8,48.8,98,92,79,30.23,30.14,8,2,20,0.21
2013-4-22,65.7,62.9,55.0,64.7,61.1,53.9,98,94,86,30.17,30.08,8,2,17,0.04
2013-4-23,76.3,63.4,53.0,63.1,57.0,52.4,99,82,54,30.19,30.10,6,1,15,0.01
2013-4-24,87.2,67.3,48.9,64.9,57.5,48.1,99,75,37,30.20,30.11,3,0,12,0.00
2013-4-25,88.1,72.4,56.1,68.1,62.9,55.3,99,75,44,30.24,30.14,2,0,9,0.00
2013-4-26,81.5,71.5,60.5,69.5,64.5,57.9,93,79,62,30.31,30.20,7,2,16,0.00
2013-4-27,82.0,69.0,56.7,67.1,59.9,55.3,98,76,45,30.30,30.18,7,1,14,0.00
2013-4-28,82.0,70.1,58.5,69.3,63.5,57.7,99,81,59,30.20,30.02,7,1,15,0.00
2013-4-29,85.7,70.6,60.2,69.1,64.6,58.6,97,83,49,30.06,29.94,6,1,17,0.33
2013-4-30,85.6,71.2,61.8,70.5,65.9,60.9,99,85,52,30.07,29.96,7,1,15,0.02
2013-5-1,77.3,69.2,61.8,69.9,66.0,60.6,99,90,77,30.08,30.00,6,2,15,0.01
2013-5-2,71.0,68.7,66.9,69.8,67.3,64.4,98,95,89,30.06,29.88,10,2,26,2.24
2013-5-3,69.0,66.9,65.4,67.5,65.9,62.9,99,96,90,29.90,29.84,9,4,23,5.29
2013-5-4,71.1,68.4,65.3,70.3,67.6,64.4,99,97,95,29.86,29.73,6,2,16,0.85
2013-5-5,78.1,66.9,58.6,67.2,58.1,52.2,99,77,43,29.94,29.76,5,1,14,0.01
2013-5-6,74.4,63.6,52.8,57.8,52.5,49.2,97,70,44,30.03,29.90,6,1,13,0.00
2013-5-7,76.9,64.9,52.1,63.6,56.8,50.9,97,77,51,30.07,29.97,5,1,18,0.00
2013-5-8,81.8,68.8,54.3,63.5,59.4,53.5,99,75,49,30.15,30.04,5,0,12,0.00
2013-5-9,86.5,72.9,57.4,67.7,61.8,56.6,99,72,40,30.18,30.10,1,0,8,0.00
2013-5-10,90.9,73.5,56.7,70.0,62.5,55.9,98,72,38,30.17,30.02,6,0,12,0.00
2013-5-11,88.7,72.6,62.1,75.4,67.9,60.9,98,86,57,30.09,29.95,6,0,14,0.18
2013-5-12,86.2,74.6,65.2,72.2,67.9,64.6,99,82,54,30.07,29.97,5,1,12,0.01
2013-5-13,80.3,68.3,53.2,65.1,53.3,44.7,96,63,30,30.18,30.04,5,0,12,0.00
2013-5-14,82.8,65.2,47.6,55.8,47.3,39.9,93,60,23,30.28,30.18,5,0,12,0.00
2013-5-15,85.9,66.0,50.4,63.1,54.0,49.3,98,71,37,30.27,30.14,2,0,10,0.00
2013-5-20,84.8,73.6,66.4,76.2,70.3,65.8,99,90,71,30.13,30.03,5,0,13,0.02
2013-5-21,85.1,72.7,63.8,73.3,69.1,63.2,99,90,62,30.08,29.98,3,0,12,0.23
2013-5-22,83.6,73.1,64.3,74.3,69.6,63.4,99,89,67,30.02,29.94,3,0,12,0.68
2013-5-23,91.3,77.6,64.8,75.8,69.8,64.2,100,80,50,30.01,29.93,3,0,8,0.02
2013-5-24,90.5,78.1,65.0,72.3,66.2,58.2,99,71,35,30.14,29.98,5,1,13,0.01
2013-5-25,83.6,70.8,58.1,64.4,58.9,55.1,97,70,39,30.27,30.13,6,1,13,0.00
2013-5-26,85.5,69.7,53.3,65.1,57.9,52.2,98,71,38,30.26,30.19,6,1,12,0.00
2013-5-27,85.0,70.4,53.5,67.3,61.3,52.4,98,76,46,30.24,30.16,7,1,15,0.00
2013-5-28,85.4,72.9,57.4,71.2,65.8,56.4,98,80,60,30.21,30.13,7,1,16,0.00
2013-5-29,87.3,76.0,63.1,74.7,69.5,61.9,98,82,62,30.19,30.12,9,1,16,0.00
2013-5-30,86.8,77.3,67.3,74.6,71.1,66.4,99,82,61,30.19,30.10,9,2,21,0.03
2013-5-31,85.0,76.5,65.5,73.9,70.3,64.7,99,82,64,30.18,30.10,6,1,17,0.01
2013-6-1,85.7,76.6,66.2,74.3,71.2,65.3,99,84,65,30.13,30.04,7,1,15,0.03
2013-6-2,88.4,79.1,71.4,78.9,75.0,70.7,99,88,69,30.08,29.90,7,1,14,0.50
2013-6-3,92.1,77.5,70.3,79.5,74.0,69.7,99,90,61,30.01,29.89,6,0,13,0.93
2013-6-4,89.4,77.1,71.5,78.3,74.4,70.9,99,92,67,30.06,29.96,3,0,12,0.08
2013-6-5,84.0,74.7,71.4,75.6,72.6,70.6,98,93,74,30.05,29.96,3,0,14,0.65
2013-6-6,78.2,74.2,71.9,76.4,73.3,71.1,99,97,91,29.97,29.58,8,2,25,1.68
2013-6-7,88.8,78.6,70.3,78.7,73.2,69.4,98,85,65,29.97,29.66,5,1,18,0.08
2013-6-8,94.4,80.2,72.7,77.9,73.9,71.7,99,83,50,30.10,29.95,6,0,17,0.10
2013-6-9,89.3,77.1,70.6,78.9,74.1,70.0,99,91,64,30.15,30.06,7,1,15,0.14
2013-6-10,90.5,80.0,72.7,80.2,75.1,72.1,99,86,62,30.14,30.04,5,0,10,0.00
2013-6-11,92.6,80.6,71.5,78.4,74.5,70.9,99,83,56,30.12,30.03,5,0,12,0.00
2013-6-12,95.5,82.9,71.0,79.0,74.4,70.1,99,78,49,30.10,30.00,3,0,8,0.00
2013-6-13,95.1,84.1,74.1,79.8,75.8,73.2,98,78,50,30.03,29.89,5,0,12,0.00
2013-6-14,90.0,79.6,72.1,81.3,76.0,71.0,97,89,71,29.97,29.83,5,0,13,0.66
2013-6-15,85.5,78.0,71.4,73.7,71.1,68.1,99,81,59,30.12,29.96,6,1,15,0.01
2013-6-16,87.8,79.1,71.3,76.8,73.5,68.6,96,84,68,30.15,30.06,5,1,12,0.00
2013-6-17,95.5,82.6,73.5,79.1,75.6,72.6,98,81,53,30.12,29.98,3,0,7,0.00
2013-6-18,93.5,81.5,70.4,77.7,73.6,69.6,99,79,52,30.07,29.95,3,1,14,0.00
2013-6-19,94.3,82.9,71.0,78.4,73.8,70.1,99,77,51,30.07,29.95,2,0,10,0.09
2013-6-20,92.3,79.1,71.0,78.9,74.6,70.3,99,88,55,30.12,30.02,8,0,17,0.39
2013-6-21,87.4,76.7,70.6,77.1,73.5,70.0,99,90,68,30.17,30.08,5,0,14,0.12
2013-6-22,89.6,76.1,69.4,77.6,73.3,68.8,100,92,68,30.16,30.10,3,0,10,0.09
2013-6-23,92.0,80.4,69.5,77.5,73.2,68.9,99,81,51,30.19,30.11,6,0,12,0.00
2013-6-24,92.5,80.8,70.1,77.1,73.4,69.2,98,80,50,30.23,30.11,3,1,14,0.00
2013-6-25,92.6,81.2,70.7,76.9,73.6,69.8,98,80,51,30.20,30.06,5,0,10,0.00
2013-6-26,93.7,78.3,69.7,78.5,72.9,68.8,99,85,51,30.12,30.04,5,0,13,0.16
2013-6-27,93.4,80.4,69.2,78.8,74.3,68.6,99,83,60,30.06,29.93,5,0,9,0.00
2013-6-28,91.7,80.8,75.7,79.7,75.8,72.1,98,86,63,29.97,29.83,5,0,14,0.00
2013-6-29,88.1,79.2,76.2,78.2,75.2,73.4,96,88,72,29.86,29.79,5,1,14,0.02
2013-6-30,90.5,78.7,74.1,78.9,75.3,72.5,98,90,62,29.89,29.81,5,1,16,0.42
2013-7-1,83.4,75.5,72.7,78.7,73.7,72.1,98,94,83,30.05,29.86,5,1,17,2.05
2013-7-2,87.2,76.3,72.6,78.0,74.3,72.1,99,94,69,30.13,30.01,5,1,12,0.48
2013-7-3,88.6,79.2,71.5,80.1,75.6,71.2,100,89,69,30.16,30.09,5,1,13,0.02
2013-7-4,88.2,79.5,73.4,79.5,75.5,72.0,98,88,69,30.20,30.11,5,1,15,0.37
2013-7-5,88.2,78.7,70.9,79.4,75.0,70.3,99,89,70,30.19,30.12,5,0,13,0.18
2013-7-6,89.3,80.1,71.6,78.1,74.7,71.0,99,85,65,30.17,30.08,5,1,13,0.01
2013-7-7,89.7,80.4,70.8,77.5,74.0,70.2,99,82,62,30.18,30.09,5,1,12,0.00
2013-7-8,90.7,79.5,70.7,78.4,73.7,69.8,99,84,59,30.21,30.13,3,0,12,0.00
2013-7-9,91.4,80.0,70.0,77.7,72.5,69.2,99,80,54,30.21,30.10,5,0,10,0.00
2013-7-10,93.3,80.2,67.8,77.2,73.1,67.2,99,81,53,30.14,29.99,3,0,10,0.00
2013-7-11,93.8,79.2,71.5,77.3,73.9,70.6,98,85,55,30.06,29.91,5,0,13,0.01
2013-7-12,90.5,78.1,72.6,77.9,74.5,72.0,99,90,61,29.97,29.91,3,0,12,0.07
2013-7-13,89.0,75.2,71.2,77.9,72.8,70.4,99,93,66,30.02,29.93,3,0,10,2.09
2013-7-14,85.3,76.2,69.5,77.2,73.3,69.2,100,91,73,30.14,30.01,5,0,13,0.01
2013-7-15,80.6,76.0,70.1,77.9,74.3,69.5,99,95,89,30.19,30.11,5,0,12,0.18
2013-7-16,88.2,79.3,72.1,77.6,74.8,71.5,100,87,66,30.22,30.16,6,1,16,0.12
2013-7-17,89.3,80.3,72.8,78.1,73.8,71.8,99,82,57,30.23,30.12,6,1,14,0.01
2013-7-18,89.0,79.0,71.2,77.2,73.7,70.6,99,85,61,30.17,30.06,3,0,12,0.00
2013-7-19,88.9,76.9,72.1,76.8,73.4,71.2,98,90,65,30.15,30.08,6,1,12,0.17
2013-7-20,86.3,76.9,71.3,79.0,73.8,70.7,99,91,76,30.13,30.05,3,0,12,0.01
2013-7-21,90.1,78.2,71.5,79.5,75.3,70.8,98,91,66,30.14,30.06,5,0,20,0.12
2013-7-22,90.7,77.5,73.1,79.2,75.4,72.6,99,94,68,30.16,30.06,7,0,14,0.32
2013-7-23,86.3,76.6,73.3,79.6,74.9,72.7,99,95,79,30.08,29.96,3,0,10,0.08
2013-7-24,86.2,77.9,71.9,80.2,75.4,71.3,99,92,79,29.97,29.86,3,0,12,0.17
2013-7-25,88.7,80.2,73.1,79.0,75.5,72.3,98,87,69,29.99,29.86,5,0,12,0.01
2013-7-26,93.5,81.2,71.6,80.0,75.6,71.0,99,85,62,30.05,29.97,5,0,10,0.00
2013-7-27,94.9,81.7,72.2,80.1,75.5,71.6,99,83,55,30.03,29.90,2,0,7,0.00
2013-7-28,91.2,79.8,73.4,79.0,75.0,72.5,99,86,62,30.08,29.95,5,0,12,0.00
2013-7-29,94.5,81.7,69.7,78.4,73.8,69.1,99,79,51,30.18,30.06,5,0,8,0.00
2013-7-30,93.1,79.9,73.7,80.2,76.2,72.8,99,89,64,30.20,30.12,3,0,7,0.13
2013-7-31,90.2,77.8,71.6,80.6,74.6,70.9,99,91,66,30.16,30.05,2,0,10,0.83
2013-8-1,91.7,76.2,72.4,79.9,74.5,71.9,99,95,64,30.08,30.00,2,0,7,0.82
2013-8-2,93.3,80.2,70.2,79.0,74.8,69.9,100,85,60,30.06,29.98,3,0,10,0.01
2013-8-3,92.8,81.0,72.9,82.1,77.0,72.3,100,88,65,30.09,30.01,3,0,12,0.09
2013-8-4,95.1,83.5,74.8,81.1,77.9,74.3,100,84,57,30.08,29.96,6,0,12,0.00
2013-8-5,93.8,82.2,73.7,81.1,77.5,72.1,99,87,61,30.03,29.91,2,0,8,0.18
2013-8-6,91.8,79.3,72.1,80.4,76.3,71.8,100,91,65,30.02,29.93,3,0,12,0.20
2013-8-7,87.9,79.6,74.0,80.5,76.8,73.5,100,92,72,30.03,29.95,2,0,13,0.28
2013-8-8,92.1,81.8,74.2,80.4,76.6,73.6,100,86,60,30.08,29.99,3,0,12,0.01
2013-8-9,90.1,80.0,72.4,79.4,76.4,71.8,100,89,69,30.11,30.01,6,0,16,0.27
2013-8-10,93.8,80.1,71.3,79.0,75.7,71.0,100,88,56,30.17,30.08,7,0,15,0.41
2013-8-11,94.7,82.3,73.8,79.5,76.4,73.5,100,84,55,30.19,30.09,2,0,10,0.00
2013-8-12,97.5,82.5,72.8,81.7,76.5,71.9,99,84,55,30.16,30.02,2,0,14,1.43
2013-8-13,80.4,79.4,78.5,77.5,77.0,76.6,94,92,91,30.01,30.00,0,0,1,1.43
2013-8-14,96.2,83.2,75.0,80.5,76.6,73.5,99,82,54,30.03,29.90,6,0,13,0.00
2013-8-15,94.0,80.5,73.1,79.7,75.1,72.5,99,85,58,30.06,29.94,5,0,15,0.21
2013-8-16,89.1,78.4,72.4,79.4,75.5,72.0,99,91,66,30.09,29.99,5,0,13,0.05
2013-8-17,90.5,80.6,75.7,80.4,77.3,75.3,99,91,69,30.11,30.02,3,0,12,0.11
2013-8-18,89.3,80.2,76.0,80.7,77.5,75.4,98,92,72,30.13,30.05,2,0,16,0.50
2013-8-19,91.7,81.6,73.7,80.7,76.2,73.4,100,85,60,30.13,30.00,6,0,10,0.01
2013-8-20,91.6,81.0,71.2,79.6,75.5,70.6,100,85,63,30.16,30.04,3,0,12,0.00
2013-8-21,87.2,78.7,72.7,80.1,76.3,72.1,100,93,75,30.18,30.10,5,0,12,0.16
2013-8-22,83.2,77.1,74.4,79.3,75.6,73.1,99,95,84,30.16,30.05,5,0,13,0.02
2013-8-23,84.5,75.5,72.6,79.4,74.7,71.4,100,97,80,30.08,30.02,5,0,15,1.66
2013-8-24,85.7,77.8,72.8,80.5,76.0,72.8,100,95,78,30.17,30.05,6,0,12,0.04
2013-8-25,83.1,76.8,72.9,78.2,75.3,72.0,99,95,84,30.22,30.15,7,0,15,0.22
2013-8-26,88.6,78.2,70.7,78.8,74.0,70.4,100,88,68,30.22,30.09,6,1,14,0.01
2013-8-27,87.1,77.7,70.8,76.6,72.8,70.1,100,86,61,30.13,30.04,3,0,12,0.00
2013-8-28,92.0,78.4,67.1,76.9,71.8,66.8,100,82,53,30.09,30.00,1,0,6,0.00
2013-8-29,93.6,80.3,69.5,77.8,72.9,68.9,100,81,49,30.06,29.94,3,0,9,0.00
2013-8-30,95.5,82.4,71.5,79.2,74.6,70.7,100,80,51,30.00,29.89,1,0,7,0.00
2013-8-31,93.5,77.7,70.6,80.1,74.2,70.0,99,90,58,29.99,29.90,7,0,17,0.70
2013-9-1,93.4,79.6,70.8,79.5,74.8,70.5,100,87,55,30.01,29.91,3,0,10,0.15
2013-9-2,93.4,80.0,70.4,79.0,74.5,70.1,100,85,57,30.02,29.91,6,0,14,0.01
2013-9-3,90.0,79.7,72.4,78.8,75.9,72.1,100,89,67,30.03,29.94,1,0,9,0.01
2013-9-4,94.9,80.7,71.5,79.7,74.8,71.2,100,84,52,30.11,30.00,5,0,17,0.00
2013-9-5,94.1,80.9,71.4,79.5,74.8,70.9,100,84,58,30.13,30.02,2,0,9,0.10
2013-9-6,91.1,78.3,71.2,79.2,74.5,69.5,99,89,66,30.09,29.99,5,0,10,0.08
2013-9-7,86.3,77.8,70.8,74.0,72.0,69.6,98,83,66,30.02,29.97,3,0,13,0.08
2013-9-8,89.6,77.1,67.2,75.1,69.6,66.9,100,80,51,30.02,29.93,6,0,12,0.00
2013-9-9,89.4,76.4,65.8,75.1,69.7,65.2,100,82,52,30.09,29.99,5,1,13,0.00
2013-9-10,88.3,76.9,66.4,76.2,70.5,65.8,100,83,56,30.16,30.07,7,1,18,0.00
2013-9-11,88.5,77.7,70.7,77.2,72.9,69.9,99,86,63,30.14,30.06,7,1,14,0.00
2013-9-12,88.0,77.9,69.5,77.7,73.1,68.9,100,87,61,30.08,29.92,3,0,13,0.00
2013-9-13,93.3,79.5,68.8,78.5,72.5,68.3,100,82,48,29.95,29.81,2,0,7,0.00
2013-9-14,93.7,79.2,68.7,78.2,73.0,68.1,100,84,48,30.02,29.85,0,0,7,0.18
2013-9-15,90.6,79.8,70.1,79.8,74.8,69.8,100,86,61,30.12,30.01,3,0,16,0.01
2013-9-16,92.0,80.3,71.2,78.4,74.1,71.0,100,83,56,30.12,30.01,3,0,12,0.00
2013-9-17,88.6,78.2,69.5,78.7,73.4,68.9,100,87,66,30.12,30.02,8,1,21,0.00
2013-9-18,83.0,76.0,69.8,76.2,73.2,68.6,98,91,74,30.13,30.05,7,1,18,0.08
2013-9-19,86.5,74.8,68.9,78.6,72.1,68.0,99,92,71,30.11,30.05,7,1,13,0.10
2013-9-20,86.3,75.1,65.9,74.7,70.2,65.6,100,86,66,30.08,29.95,5,0,12,0.00
2013-9-21,89.3,77.0,64.1,76.5,70.4,63.5,100,82,56,29.98,29.78,3,0,7,0.00
2013-9-22,82.8,75.7,72.6,77.8,73.9,71.7,99,94,81,29.88,29.77,2,0,10,0.18
2013-9-23,81.2,75.1,71.8,77.5,74.0,71.5,100,96,85,29.99,29.86,2,0,7,0.17
2013-9-24,83.0,76.6,73.8,78.4,75.7,73.5,100,97,86,29.98,29.86,0,0,5,0.20
2013-9-25,85.1,77.4,72.4,76.9,75.0,72.1,100,93,75,29.87,29.78,2,0,12,0.02
2013-9-26,84.7,76.1,70.5,78.0,73.5,68.7,100,92,74,29.94,29.78,3,0,11,0.00
2013-9-27,83.8,72.8,66.1,74.3,69.4,65.7,99,90,72,30.03,29.91,6,1,18,0.00
2013-9-28,76.4,71.8,67.5,73.6,70.1,66.9,100,95,85,30.10,29.99,5,0,12,0.15
2013-9-29,83.7,72.6,66.5,74.6,69.0,65.7,100,89,67,30.06,29.97,6,1,14,0.00
2013-9-30,82.1,72.3,66.3,73.6,68.9,65.7,100,90,71,30.07,29.97,5,0,12,0.01
2013-10-1,83.8,73.6,65.2,72.7,68.6,64.0,97,85,67,30.13,30.04,5,0,10,0.00
2013-10-2,83.4,71.5,61.5,70.4,66.4,60.9,100,86,63,30.13,30.07,6,1,13,0.00
2013-10-3,86.2,74.4,65.3,75.8,70.5,64.6,100,89,65,30.12,30.04,2,0,9,0.01
2013-10-4,90.2,77.1,66.6,76.2,71.6,66.3,100,85,55,30.13,30.04,6,0,12,0.00
2013-10-5,86.7,76.3,67.8,76.8,72.1,67.5,100,88,67,30.11,30.01,6,1,13,0.01
2013-10-6,88.9,77.3,68.8,77.6,72.8,68.1,100,87,60,30.04,29.89,3,0,10,0.00
2013-10-7,84.8,76.0,68.1,77.5,73.4,67.8,100,92,75,29.90,29.77,3,0,8,0.01
2013-10-8,80.6,74.0,67.3,75.7,72.4,66.2,98,95,84,30.03,29.81,5,1,14,0.00
2013-10-9,70.1,64.6,59.2,66.1,63.0,58.6,99,95,85,30.12,30.02,3,0,9,0.00
2013-10-10,84.3,68.6,57.1,67.8,62.2,56.8,100,83,50,30.11,30.01,2,0,9,0.00
2013-10-11,84.7,69.3,57.2,71.6,62.4,56.6,100,82,50,30.08,29.98,3,0,8,0.00
2013-10-12,86.2,68.5,61.3,68.5,63.6,60.1,99,87,46,30.08,30.00,0,0,6,0.00
2013-10-13,86.4,70.0,56.0,68.4,62.7,55.4,100,81,47,30.13,30.04,2,0,9,0.00
2013-10-14,78.9,70.0,61.9,71.3,66.5,61.3,99,89,73,30.10,30.02,5,0,12,0.01
2013-10-15,72.6,69.8,67.8,70.0,68.1,66.1,98,94,89,30.06,29.97,5,1,12,0.01
2013-10-16,83.6,72.0,64.0,74.2,68.8,63.4,99,90,71,30.02,29.95,6,0,9,0.00
2013-10-17,87.5,73.6,62.8,74.7,68.8,62.4,100,86,59,30.02,29.92,1,0,9,0.00
2013-10-18,89.3,75.3,64.0,75.7,70.3,63.5,100,86,58,30.03,29.92,2,0,6,0.00
2013-10-19,87.8,76.2,68.1,76.4,72.6,67.5,99,90,64,29.99,29.89,5,0,12,0.01
2013-10-20,79.8,72.2,66.9,72.1,68.3,65.6,99,88,70,30.03,29.92,3,0,9,0.00
2013-10-21,84.8,73.1,64.0,76.4,70.4,63.4,99,92,75,30.06,29.95,5,0,10,0.01
2013-10-22,84.0,75.1,70.6,77.9,73.5,69.7,100,95,80,30.01,29.84,2,0,7,0.04
2013-10-23,76.9,67.0,51.5,71.8,60.8,49.8,99,83,47,30.07,29.84,5,0,14,0.00
2013-10-24,72.5,57.1,47.5,57.5,49.1,45.4,96,77,41,30.22,30.07,3,0,8,0.00
2013-10-25,76.5,58.6,44.4,59.5,51.4,43.9,100,80,47,30.30,30.21,3,0,9,0.00
2013-10-26,74.2,57.4,45.2,57.8,50.8,44.2,97,81,50,30.29,30.16,3,0,8,0.00
2013-10-27,75.7,57.7,42.8,57.0,49.2,42.0,100,78,36,30.20,30.12,2,0,8,0.00
2013-10-28,80.0,61.8,46.1,64.3,55.8,45.3,100,83,52,30.26,30.16,5,0,9,0.00
2013-10-29,79.3,65.3,54.9,67.4,60.4,54.3,100,86,61,30.31,30.23,6,1,12,0.00
2013-10-30,80.5,68.0,57.7,69.5,63.7,57.1,99,87,67,30.30,30.18,6,1,12,0.00
2013-10-31,83.8,72.5,60.5,71.8,66.9,59.6,99,84,60,30.19,30.01,5,0,12,0.00
2013-11-1,84.5,73.9,64.0,73.3,69.5,63.1,99,87,61,30.04,29.86,6,1,20,0.00
2013-11-2,75.7,66.9,53.2,73.8,65.0,52.6,99,94,74,30.01,29.81,3,0,9,0.00
2013-11-3,70.8,58.0,49.5,55.0,51.3,48.0,99,81,50,30.23,30.00,7,1,15,0.00
2013-11-4,75.1,62.4,50.8,65.3,58.2,48.8,96,87,69,30.28,30.21,7,2,22,0.00
2013-11-5,73.5,67.4,63.7,68.7,65.1,62.0,98,93,83,30.28,30.20,8,2,18,0.00
2013-11-6,77.4,70.3,65.4,70.7,67.9,65.1,99,92,77,30.21,30.11,5,1,10,0.00
2013-11-7,82.9,71.4,64.9,69.8,67.0,63.4,97,87,57,30.11,30.00,3,0,8,0.00
2013-11-8,68.6,60.4,50.4,65.9,53.7,45.5,94,79,69,30.23,30.06,10,2,21,0.00
2013-11-9,76.4,62.1,49.7,64.1,57.4,48.9,99,86,61,30.27,30.19,7,1,13,0.00
2013-11-10,77.5,64.8,55.6,67.7,61.3,54.8,99,90,66,30.26,30.15,5,0,10,0.00
2013-11-11,78.6,63.8,52.0,66.9,59.5,51.5,99,87,66,30.24,30.14,5,0,9,0.00
2013-11-12,77.3,66.0,58.4,67.6,62.0,52.4,99,88,62,30.17,30.06,3,0,9,0.00
2013-11-13,61.5,50.1,40.5,51.6,42.8,35.3,86,76,66,30.45,30.18,7,2,20,0.00
2013-11-14,69.1,53.3,39.1,60.2,49.0,35.3,97,86,71,30.41,30.27,5,1,12,0.00
2013-11-15,66.8,61.0,53.5,66.1,60.2,52.8,99,97,91,30.26,30.09,1,0,5,0.00
2013-11-16,74.3,67.4,61.4,69.8,65.7,61.1,100,95,81,30.21,30.12,5,1,10,0.00
2013-11-17,81.4,72.7,67.2,74.1,70.3,66.6,99,93,75,30.14,30.03,5,0,12,0.00
2013-11-18,78.5,72.1,67.0,75.1,71.1,66.7,100,97,88,30.06,29.94,3,0,8,0.00
2013-11-19,72.4,63.7,54.1,70.5,58.5,48.9,99,83,70,30.07,29.94,6,1,13,0.00
2013-11-20,71.8,62.8,55.3,67.7,61.2,53.9,98,94,87,30.21,30.06,5,1,13,0.00
2013-11-21,73.8,67.7,64.2,71.7,66.1,63.3,98,95,85,30.28,30.19,5,1,10,0.00
2013-11-22,78.9,69.1,59.8,71.4,66.4,59.0,100,92,77,30.28,30.16,5,1,12,0.00
2013-11-23,83.8,69.1,55.7,70.3,63.4,55.1,100,84,52,30.17,30.05,2,0,10,0.00
2013-11-24,66.7,56.8,47.1,62.0,50.5,43.8,89,80,63,30.37,30.11,10,2,23,0.00
2013-11-25,71.5,59.6,45.1,60.7,53.6,43.2,94,81,59,30.35,30.15,6,1,15,0.00
2013-11-26,77.4,69.7,59.5,73.1,67.8,57.8,98,94,86,30.14,29.74,6,2,15,0.46
2013-11-27,71.7,54.8,36.6,71.1,51.2,34.8,98,88,73,30.26,29.67,8,2,20,0.01
2013-11-28,57.8,41.4,29.7,48.1,37.0,28.3,95,85,68,30.45,30.26,6,1,12,0.00
2013-11-29,66.8,52.9,41.1,56.8,47.5,39.8,95,83,60,30.47,30.38,6,1,13,0.00
2013-11-30,63.1,56.9,52.8,59.2,54.7,49.9,98,92,86,30.41,30.27,7,2,15,0.00
2013-12-1,74.1,61.0,52.9,64.4,57.8,51.6,98,90,70,30.27,30.04,2,0,8,0.00
2013-12-2,72.1,59.4,50.8,61.2,56.0,50.0,99,90,60,30.03,29.86,3,0,8,0.00
2013-12-3,76.5,60.2,45.9,64.0,55.8,45.4,100,87,61,30.01,29.92,5,0,12,0.01
2013-12-4,81.1,64.9,52.4,69.3,61.1,51.9,100,89,64,30.13,29.99,5,0,12,0.00
2013-12-5,83.9,68.4,54.2,70.3,63.5,53.6,100,86,58,30.21,30.11,6,0,10,0.00
2013-12-6,83.8,70.9,61.5,71.6,66.4,60.9,100,87,61,30.20,30.12,7,1,17,0.00
2013-12-7,84.7,71.6,63.2,72.4,67.4,62.3,100,88,62,30.26,30.17,6,1,13,0.00
2013-12-8,81.4,68.8,58.0,71.5,65.6,57.4,100,90,67,30.28,30.15,6,1,12,0.00
2013-12-9,84.5,71.3,59.9,72.0,67.3,59.6,100,88,64,30.21,30.10,6,1,14,0.00
2013-12-10,82.1,68.6,54.6,71.9,65.7,49.9,99,91,71,30.28,30.07,6,1,15,0.04
2013-12-11,67.7,58.1,48.9,61.8,53.8,44.9,90,86,80,30.33,30.25,5,1,10,0.00
2013-12-12,66.6,54.5,37.1,54.9,42.1,31.5,95,68,27,30.42,30.29,5,1,13,0.00
2013-12-13,68.3,52.1,37.0,58.0,48.1,35.7,97,87,67,30.37,30.19,6,1,12,0.00
2013-12-14,77.1,64.2,49.2,70.5,62.3,48.4,100,94,80,30.17,29.95,8,1,18,0.01
2013-12-15,68.6,61.1,47.6,66.8,58.5,44.8,99,91,74,30.21,29.89,6,1,13,0.00
2013-12-16,60.2,45.6,36.2,45.7,40.8,35.2,98,85,54,30.30,30.19,3,0,8,0.00
2013-12-17,69.3,47.5,33.8,50.6,39.9,33.1,99,80,36,30.33,30.21,2,0,8,0.00
2013-12-18,65.5,47.5,35.0,45.9,38.1,33.7,98,76,31,30.35,30.24,3,0,12,0.00
2013-12-19,73.1,51.4,32.4,59.7,46.6,31.4,99,86,56,30.35,30.24,5,0,9,0.00
2013-12-20,79.3,60.4,43.0,64.3,54.9,42.5,100,84,52,30.26,30.16,5,0,12,0.00
2013-12-21,83.2,69.4,54.2,70.3,64.5,53.6,100,86,60,30.18,30.06,9,1,17,0.00
2013-12-22,83.7,73.8,68.0,73.2,70.3,66.5,99,90,69,30.17,30.09,8,2,17,0.00
2013-12-23,83.7,73.5,66.2,73.0,69.9,65.3,99,89,68,30.19,30.09,9,1,20,0.00
2013-12-24,66.3,54.0,36.6,63.6,45.8,34.5,95,77,38,30.35,30.15,6,1,16,0.00
2013-12-25,65.4,49.8,36.5,57.5,45.9,33.5,94,87,74,30.34,30.26,7,2,15,0.00
2013-12-26,64.0,55.1,49.6,55.6,51.4,48.3,97,88,74,30.31,30.20,3,1,10,0.00
2013-12-27,61.8,55.7,50.7,58.9,53.2,48.6,95,91,87,30.35,30.26,5,2,12,0.00
2013-12-28,71.5,64.5,56.6,69.8,62.5,53.4,98,93,86,30.31,30.02,5,2,10,0.09
2013-12-29,72.3,68.0,56.8,70.5,66.9,56.3,99,96,92,30.04,29.93,7,2,16,0.83
2013-12-30,67.5,55.8,46.3,56.0,51.2,45.8,99,86,56,30.25,30.04,3,1,9,0.01
2013-12-31,64.5,55.6,50.2,53.5,51.6,49.4,98,87,64,30.37,30.23,3,0,8,0.00
2014-1-1,59.6,55.9,51.0,59.0,55.1,50.1,99,97,93,30.34,30.12,3,0,9,0.98
2014-1-2,65.4,60.8,54.0,64.9,60.0,48.6,100,97,82,30.11,29.82,7,1,18,1.04